Regional Weather Roundup
Issued by NWS Little Rock, AR

Home | Current Version | Previous Version | Graphics & Text | Print | Product List | Glossary On
Versions: 1 2 3 4 5 6 7 8 9 10 11 12 13 14 15 16 17 18 19 20 21 22 23 24 25 26 27 28 29 30 31 32 33 34 35 36 37 38 39 40 41 42 43 44 45 46 47 48 49 50
000
ASUS44 KLZK 240405
RWRLZK

WEATHER ROUNDUP FOR ARKANSAS
NATIONAL WEATHER SERVICE LITTLE ROCK AR
1100 PM CDT WED AUG 23 2017

NOTE: "FAIR" INDICATES FEW OR NO CLOUDS BELOW 12,000 FEET WITH NO
SIGNIFICANT WEATHER AND/OR OBSTRUCTIONS TO VISIBILITY.

ARZ001-003-010-029-240500-
NORTHWEST ARKANSAS

CITY           SKY/WX    TMP DP  RH WIND       PRES   REMARKS
FAYETTEVILLE   CLEAR     63  62  97 CALM      30.05R
FORT SMITH     CLEAR     74  69  85 E5        30.00R
HARRISON       CLEAR     62  58  86 CALM      30.07R
BENTONVILLE    CLEAR     68  55  64 NE6       30.06S
ROGERS         CLEAR     68  56  65 E6        30.07R
HIGHFILL       CLEAR     64  61  88 N5        30.05S
$$

ARZ004-005-016-240500-
NORTH CENTRAL ARKANSAS

CITY           SKY/WX    TMP DP  RH WIND       PRES   REMARKS
FLIPPIN        CLEAR     64  55  72 CALM      30.02S
MTN HOME       CLEAR     67  57  70 E5        30.04
$$

ARZ040-041-240500-
WEST CENTRAL ARKANSAS

CITY           SKY/WX    TMP DP  RH WIND       PRES   REMARKS
MENA           PTCLDY    73  72  94 E5        30.03R
MOUNT IDA      PTCLDY    72  69  90 CALM      30.00R
$$

ARZ009-017-025-026-028-240500-
NORTHEAST ARKANSAS

CITY           SKY/WX    TMP DP  RH WIND       PRES   REMARKS
CORNING        FAIR      68  64  88 CALM      30.03S
JONESBORO      CLEAR     65  61  87 NE5       30.02R
NEWPORT        CLEAR     66  62  87 N3        30.02S
WALNUT RIDGE   CLEAR     66  59  77 E6        30.02S
BLYTHEVILLE    CLEAR     63  60  90 N5        30.02S
$$

ARZ022-023-033-042-044-240500-
CENTRAL ARKANSAS

CITY           SKY/WX    TMP DP  RH WIND       PRES   REMARKS
LITTLE ROCK    PTCLDY    71  67  87 NE6       30.01S
N LITTLE ROCK    N/A     71  66  85 NE5       30.01S
JACKSONVILLE   MOCLDY    71  69  95 CALM      30.01R
CONWAY           N/A     70  68  94 CALM      29.99S
SEARCY         CLEAR     68  65  90 NE5       30.03R
HOT SPRINGS    CLOUDY    74  67  78 E6        30.01S
RUSSELLVILLE   CLEAR     68  67  96 CALM      30.01R
CLINTON        FAIR      66  66 100 CALM      30.03S
$$

ARZ036-240500-
EAST ARKANSAS

CITY           SKY/WX    TMP DP  RH WIND       PRES   REMARKS
WEST MEMPHIS   CLEAR     67  63  87 N5        30.00S
$$

ARZ050-053-066-070-073-240500-
SOUTHWEST ARKANSAS

CITY           SKY/WX    TMP DP  RH WIND       PRES   REMARKS
ARKADELPHIA    CLOUDY    75  71  87 NE5       29.99S
CAMDEN         CLOUDY    77  70  78 VRB5      29.96S
TEXARKANA      PTCLDY    76  74  93 NE5       29.96S
EL DORADO      CLOUDY    77  73  87 NE3       29.97S
DE QUEEN       PTCLDY    76  74  93 E5        29.96R
$$

ARZ056-057-069-240500-
SOUTHEAST ARKANSAS

CITY           SKY/WX    TMP DP  RH WIND       PRES   REMARKS
PINE BLUFF     PTCLDY    73  67  81 NE5       30.00R
MONTICELLO     CLOUDY    77  69  76 NE7       29.98S

$$





USA.gov is the U.S. government's official web portal to all federal, state and local government web resources and services.